Weather History for Ruston, LA

Change the Weather History Date:

Saturday, February 22, 2014

  Actual Average Record
Temperature  
Mean Temperature 52 °F -  
Max Temperature 70 °F 63 °F 84 °F (1980)
Min Temperature 33 °F 40 °F 17 °F (1978)
Degree Days  
Heating Degree Days 14    
Growing Degree Days 2 (Base 50)    
Moisture  
Dew Point 31 °F    
Average Humidity 52    
Maximum Humidity 97    
Minimum Humidity 17    
Precipitation  
Precipitation 0.00 in - - ()
Sea Level Pressure  
Sea Level Pressure 30.07 in    
Wind  
Wind Speed 3 mph (South)    
Max Wind Speed 14 mph    
Max Gust Speed 18 mph    
Visibility 10 miles    
Events      
Averages and records for this station are not official NWS values.
T = Trace of Precipitation, MM = Missing Value Source: NWS Daily Summary

Daily Weather History Graph

Daily Weather History Graph

Search for Another Location

Airport:

Trip Planner

Search our weather history database for the weather conditions in past years. The results will help you decide how hot, cold, wet, or windy it might be!

Date:

Astronomy

Feb. 22, 2014 Rise Set
Actual Time 6:45 AM CST 6:02 PM CST
Civil Twilight 6:21 AM CST 6:27 PM CST
Nautical Twilight 5:52 AM CST 6:55 PM CST
Astronomical Twilight 5:23 AM CST 7:24 PM CST
Moon 12:33 AM CST (2/22) 11:22 AM CST (2/22)
Length of Visible Light 12h 06m
Length of Day
11h 16m
Waning Gibbous, 50% of the Moon is Illuminated
Feb 22
Waning Gibbous
Mar 1
New
Mar 8
First Quarter
Mar 16
Full
Mar 23
Last Quarter

Hourly Weather History & Observations

Time (CST) Temp. Dew Point Humidity Pressure Visibility Wind Dir Wind Speed Gust Speed Precip Events Conditions
12:15 AM 39.2 °F 35.1 °F 85% 30.14 in 10.0 mi Calm Calm - N/A   Clear
12:35 AM 38.8 °F 35.6 °F 88% 30.14 in 10.0 mi Calm Calm - N/A   Clear
12:55 AM 38.8 °F 34.0 °F 83% 30.14 in 10.0 mi Calm Calm - N/A   Clear
1:15 AM 38.3 °F 34.9 °F 87% 30.14 in 10.0 mi Calm Calm - N/A   Clear
1:35 AM 39.4 °F 33.8 °F 80% 30.14 in 10.0 mi Calm Calm - N/A   Clear
1:55 AM 39.6 °F 34.5 °F 82% 30.14 in 10.0 mi Calm Calm - N/A   Clear
2:15 AM 39.6 °F 34.9 °F 83% 30.13 in 10.0 mi Calm Calm - N/A   Clear
2:35 AM 39.2 °F 35.2 °F 86% 30.12 in 10.0 mi Calm Calm - N/A   Clear
2:55 AM 39.0 °F 35.2 °F 86% 30.12 in 10.0 mi Calm Calm - N/A   Clear
3:15 AM 38.1 °F 35.4 °F 90% 30.11 in 10.0 mi Calm Calm - N/A   Clear
3:35 AM 37.9 °F 35.2 °F 90% 30.11 in 10.0 mi Calm Calm - N/A   Clear
3:55 AM 36.7 °F 35.1 °F 94% 30.11 in 10.0 mi Calm Calm - N/A   Clear
4:15 AM 36.7 °F 34.5 °F 92% 30.11 in 10.0 mi Calm Calm - N/A   Clear
4:35 AM 36.5 °F 34.5 °F 93% 30.12 in 10.0 mi Calm Calm - N/A   Clear
4:55 AM 34.9 °F 33.4 °F 94% 30.12 in 10.0 mi Calm Calm - N/A   Clear
5:15 AM 34.9 °F 34.0 °F 97% 30.13 in 10.0 mi Calm Calm - N/A   Clear
5:35 AM 34.5 °F 32.7 °F 93% 30.12 in 10.0 mi Calm Calm - N/A   Clear
5:55 AM 34.7 °F 33.6 °F 96% 30.13 in 10.0 mi Calm Calm - N/A   Clear
6:15 AM 34.3 °F 33.1 °F 95% 30.13 in 10.0 mi Calm Calm - N/A   Clear
6:35 AM 34.0 °F 32.4 °F 94% 30.13 in 10.0 mi Calm Calm - N/A   Clear
6:55 AM 33.1 °F 32.2 °F 96% 30.13 in 10.0 mi Calm Calm - N/A   Clear
7:15 AM 33.3 °F 32.4 °F 96% 30.14 in 10.0 mi Calm Calm - N/A   Clear
7:35 AM 37.8 °F 32.9 °F 83% 30.14 in 10.0 mi Calm Calm - N/A   Clear
7:55 AM 39.4 °F 34.2 °F 82% 30.13 in 10.0 mi Calm Calm - N/A   Clear
8:15 AM 40.6 °F 37.6 °F 89% 30.14 in 10.0 mi Calm Calm - N/A   Clear
8:35 AM 46.2 °F 37.6 °F 72% 30.14 in 10.0 mi Calm Calm - N/A   Clear
8:55 AM 49.1 °F 36.0 °F 61% 30.14 in 10.0 mi Calm Calm - N/A   Clear
9:15 AM 52.5 °F 32.9 °F 47% 30.14 in 10.0 mi South 5.8 mph - N/A   Clear
9:35 AM 55.9 °F 32.9 °F 42% 30.15 in 10.0 mi South 5.8 mph - N/A   Clear
9:55 AM 58.8 °F 30.4 °F 34% 30.14 in 10.0 mi South 11.5 mph - N/A   Clear
10:15 AM 60.3 °F 26.4 °F 28% 30.14 in 10.0 mi South 10.4 mph - N/A   Clear
10:35 AM 61.3 °F 28.0 °F 28% 30.14 in 10.0 mi SSE 8.1 mph - N/A   Clear
10:55 AM 62.6 °F 24.8 °F 24% 30.13 in 10.0 mi South 11.5 mph 16.1 mph N/A   Clear
11:15 AM 63.7 °F 23.7 °F 22% 30.13 in 10.0 mi South 6.9 mph - N/A   Clear
11:35 AM 64.4 °F 23.4 °F 21% 30.12 in 10.0 mi South 11.5 mph - N/A   Clear
11:55 AM 64.8 °F 24.6 °F 22% 30.11 in 10.0 mi South 10.4 mph - N/A   Clear
12:15 PM 65.5 °F 25.0 °F 22% 30.09 in 10.0 mi SSW 10.4 mph - N/A   Clear
12:35 PM 65.7 °F 23.7 °F 20% 30.09 in 10.0 mi South 10.4 mph - N/A   Clear
12:55 PM 67.3 °F 24.4 °F 20% 30.07 in 10.0 mi South 9.2 mph - N/A   Scattered Clouds
1:15 PM 67.3 °F 22.1 °F 18% 30.06 in 10.0 mi South 11.5 mph 18.4 mph N/A   Scattered Clouds
1:35 PM 68.2 °F 22.8 °F 18% 30.04 in 10.0 mi SE 8.1 mph - N/A   Clear
1:55 PM 68.0 °F 21.6 °F 17% 30.03 in 10.0 mi SSE 8.1 mph - N/A   Clear
2:15 PM 68.7 °F 23.2 °F 18% 30.02 in 10.0 mi SSE 10.4 mph - N/A   Clear
2:35 PM 68.9 °F 23.2 °F 18% 30.01 in 10.0 mi South 12.7 mph - N/A   Clear
2:55 PM 69.3 °F 23.2 °F 18% 30.00 in 10.0 mi South 9.2 mph - N/A   Clear
3:15 PM 69.6 °F 22.3 °F 17% 30.00 in 10.0 mi South 13.8 mph - N/A   Clear
3:35 PM 70.0 °F 24.3 °F 18% 29.99 in 10.0 mi South 10.4 mph - N/A   Clear
3:55 PM 69.1 °F 26.8 °F 21% 29.99 in 10.0 mi South 11.5 mph - N/A   Clear
4:15 PM 68.5 °F 27.7 °F 22% 29.99 in 10.0 mi South 12.7 mph 17.3 mph N/A   Clear
4:35 PM 68.2 °F 28.0 °F 22% 29.98 in 10.0 mi South 10.4 mph - N/A   Clear
4:55 PM 68.4 °F 28.6 °F 23% 29.97 in 10.0 mi SSE 9.2 mph - N/A   Clear
5:15 PM 67.3 °F 28.8 °F 24% 29.97 in 10.0 mi SSE 10.4 mph - N/A   Clear
5:35 PM 66.2 °F 29.1 °F 25% 29.97 in 10.0 mi SSE 5.8 mph - N/A   Clear
5:55 PM 64.8 °F 29.3 °F 26% 29.97 in 10.0 mi SSE 4.6 mph - N/A   Clear
6:15 PM 62.6 °F 30.6 °F 30% 29.97 in 10.0 mi South 4.6 mph - N/A   Clear
6:35 PM 61.9 °F 30.2 °F 30% 29.98 in 10.0 mi SSE 4.6 mph - N/A   Clear
6:55 PM 60.6 °F 31.5 °F 33% 29.98 in 10.0 mi SSE 8.1 mph - N/A   Clear
7:15 PM 60.3 °F 31.6 °F 34% 29.99 in 10.0 mi South 9.2 mph - N/A   Clear
7:35 PM 59.9 °F 31.6 °F 34% 29.99 in 10.0 mi SSE 10.4 mph - N/A   Clear
7:55 PM 59.0 °F 31.8 °F 36% 29.99 in 10.0 mi South 10.4 mph - N/A   Clear
8:15 PM 57.9 °F 32.0 °F 37% 29.99 in 10.0 mi South 9.2 mph - N/A   Clear
8:35 PM 57.4 °F 32.0 °F 38% 29.99 in 10.0 mi South 9.2 mph - N/A   Clear
8:55 PM 57.2 °F 32.0 °F 38% 29.99 in 10.0 mi South 10.4 mph - N/A   Clear
9:15 PM 56.7 °F 32.0 °F 39% 29.99 in 10.0 mi SSE 6.9 mph - N/A   Clear
9:35 PM 55.8 °F 32.2 °F 41% 30.00 in 10.0 mi South 6.9 mph - N/A   Clear
9:55 PM 55.6 °F 32.5 °F 42% 30.00 in 10.0 mi South 5.8 mph - N/A   Clear
10:15 PM 54.7 °F 34.2 °F 46% 29.99 in 10.0 mi South 6.9 mph - N/A   Clear
10:35 PM 54.3 °F 34.7 °F 48% 30.00 in 10.0 mi SSE 5.8 mph - N/A   Clear
10:55 PM 52.2 °F 35.8 °F 54% 30.01 in 10.0 mi Calm Calm - N/A   Clear
11:15 PM 50.5 °F 36.0 °F 57% 30.01 in 10.0 mi Calm Calm - N/A   Clear
11:35 PM 49.8 °F 36.7 °F 61% 30.02 in 10.0 mi Calm Calm - N/A   Clear
11:55 PM 47.7 °F 37.0 °F 67% 30.03 in 10.0 mi Calm Calm - N/A   Mostly Cloudy